| time (UTC) | temp C | wind direction | speed KPH | gust KPH | rain 1hr cm | rain 24hr cm | rain mn cm | humidity % | barometer mb |
| 20260502194552 | 27 | 200 | 14.5 | 0.0 | 0.00 | 0.00 | 0.00 | 100 | 1009.0 |
| 20260502193054 | 26 | 200 | 14.5 | 0.0 | 0.00 | 0.00 | 0.00 | 100 | 1009.0 |
| 20260502191552 | 27 | 200 | 14.5 | 0.0 | 0.00 | 0.00 | 0.00 | 100 | 1009.0 |
| 20260502190054 | 26 | 200 | 14.5 | 0.0 | 0.00 | 0.00 | 0.00 | 100 | 1009.0 |
| 20260502184552 | 27 | 200 | 14.5 | 0.0 | 0.00 | 0.00 | 0.00 | 100 | 1009.0 |
| 20260502183053 | 26 | 200 | 14.5 | 0.0 | 0.00 | 0.00 | 0.00 | 100 | 1009.0 |
| 20260502181552 | 27 | 200 | 14.5 | 0.0 | 0.00 | 0.00 | 0.00 | 100 | 1009.0 |
| 20260502163052 | 27 | 200 | 14.5 | 0.0 | 0.00 | 0.00 | 0.00 | 100 | 1010.0 |
| 20260502161551 | 26 | 200 | 14.5 | 0.0 | 0.00 | 0.00 | 0.00 | 100 | 1010.0 |
| 20260502151551 | 27 | 200 | 14.5 | 0.0 | 0.00 | 0.00 | 0.00 | 100 | 1010.0 |
| 20260502123014 | 30 | 300 | 14.5 | 0.0 | 0.00 | 0.00 | 0.00 | 74 | 1010.0 |
| 20260502121514 | 30 | 300 | 14.5 | 0.0 | 0.00 | 0.00 | 0.00 | 74 | 1009.0 |
| 20260502114514 | 30 | 310 | 14.5 | 0.0 | 0.00 | 0.00 | 0.00 | 79 | 1009.0 |
| 20260502113014 | 29 | 320 | 12.9 | 0.0 | 0.00 | 0.00 | 0.00 | 84 | 1009.0 |
| 20260502111514 | 28 | 320 | 12.9 | 0.0 | 0.00 | 0.00 | 0.00 | 84 | 1008.0 |
| 20260502110016 | 30 | 320 | 12.9 | 0.0 | 0.00 | 0.00 | 0.00 | 84 | 1008.0 |
| 20260502104514 | 30 | 320 | 12.9 | 0.0 | 0.00 | 0.00 | 0.00 | 84 | 1008.0 |
| 20260502103014 | 30 | 330 | 16.1 | 0.0 | 0.00 | 0.00 | 0.00 | 71 | 1008.0 |
| 20260502101514 | 30 | 330 | 16.1 | 0.0 | 0.00 | 0.00 | 0.00 | 71 | 1007.0 |
| 20260502091514 | 31 | 330 | 16.1 | 0.0 | 0.00 | 0.00 | 0.00 | 70 | 1007.0 |
| 20260502071514 | 32 | 350 | 16.1 | 0.0 | 0.00 | 0.00 | 0.00 | 68 | 1007.0 |
| 20260502070018 | 33 | 350 | 16.1 | 0.0 | 0.00 | 0.00 | 0.00 | 68 | 1007.0 |
| 20260502064514 | 32 | 350 | 16.1 | 0.0 | 0.00 | 0.00 | 0.00 | 68 | 1007.0 |
| 20260502063016 | 32 | 350 | 16.1 | 0.0 | 0.00 | 0.00 | 0.00 | 68 | 1007.0 |
| 20260502061514 | 33 | 350 | 16.1 | 0.0 | 0.00 | 0.00 | 0.00 | 68 | 1008.0 |
| 20260502060020 | 33 | 110 | 16.1 | 0.0 | 0.00 | 0.00 | 0.00 | 68 | 1008.0 |
| 20260502054514 | 32 | 110 | 16.1 | 0.0 | 0.00 | 0.00 | 0.00 | 68 | 1008.0 |
| 20260502053014 | 32 | 110 | 16.1 | 0.0 | 0.00 | 0.00 | 0.00 | 68 | 1008.0 |
| 20260502051514 | 33 | 110 | 16.1 | 0.0 | 0.00 | 0.00 | 0.00 | 69 | 1009.0 |
| 20260502050016 | 33 | 110 | 16.1 | 0.0 | 0.00 | 0.00 | 0.00 | 69 | 1008.0 |
| 20260502044514 | 32 | 110 | 16.1 | 0.0 | 0.00 | 0.00 | 0.00 | 69 | 1009.0 |
| 20260502043014 | 32 | 110 | 16.1 | 0.0 | 0.00 | 0.00 | 0.00 | 69 | 1009.0 |
| 20260502041514 | 31 | 110 | 16.1 | 0.0 | 0.00 | 0.00 | 0.00 | 69 | 1009.0 |
| 20260502040015 | 31 | 110 | 16.1 | 0.0 | 0.00 | 0.00 | 0.00 | 69 | 1009.0 |
| 20260502034514 | 32 | 110 | 16.1 | 0.0 | 0.00 | 0.00 | 0.00 | 70 | 1009.0 |
| 20260502033014 | 32 | 100 | 16.1 | 0.0 | 0.00 | 0.00 | 0.00 | 70 | 1010.0 |
| 20260502031514 | 31 | 100 | 16.1 | 0.0 | 0.00 | 0.00 | 0.00 | 70 | 1010.0 |
| 20260502030014 | 31 | 100 | 16.1 | 0.0 | 0.00 | 0.00 | 0.00 | 70 | 1010.0 |
| 20260502024528 | 30 | 57 | 4.8 | 6.4 | 0.00 | 0.00 | 0.00 | 70 | 1010.0 |
| 20260502023028 | 30 | 51 | 4.8 | 6.4 | 0.00 | 0.00 | 0.00 | 71 | 1010.0 |
| 20260502021528 | 30 | 55 | 3.2 | 4.8 | 0.00 | 0.00 | 0.00 | 78 | 1010.0 |
| 20260502020028 | 30 | 55 | 3.2 | 4.8 | 0.00 | 0.00 | 0.00 | 74 | 1010.0 |
| 20260502014528 | 30 | 64 | 3.2 | 4.8 | 0.00 | 0.00 | 0.00 | 76 | 1010.0 |
| 20260502013028 | 30 | 55 | 3.2 | 4.8 | 0.00 | 0.00 | 0.00 | 77 | 1010.0 |
| 20260502011528 | 30 | 102 | 1.6 | 1.6 | 0.00 | 0.00 | 0.00 | 84 | 1010.0 |
| 20260502010028 | 28 | 99 | 1.6 | 1.6 | 0.00 | 0.00 | 0.00 | 83 | 1010.0 |
| 20260502004528 | 28 | 99 | 1.6 | 1.6 | 0.00 | 0.00 | 0.00 | 81 | 1010.0 |
| 20260502003028 | 28 | 99 | 1.6 | 1.6 | 0.00 | 0.00 | 0.00 | 81 | 1010.0 |
| 20260502001528 | 27 | 198 | 3.2 | 3.2 | 0.00 | 0.00 | 0.00 | 88 | 1010.0 |
| 20260502000028 | 27 | 198 | 3.2 | 3.2 | 0.00 | 0.00 | 0.00 | 88 | 1010.0 |
| 20260501234528 | 27 | 208 | 3.2 | 1.6 | 0.00 | 0.00 | 0.00 | 89 | 1010.0 |
| 20260501233028 | 27 | 208 | 3.2 | 1.6 | 0.00 | 0.00 | 0.00 | 89 | 1010.0 |
| 20260501231528 | 26 | 203 | 3.2 | 3.2 | 0.00 | 0.00 | 0.00 | 91 | 1009.0 |
| 20260501230028 | 26 | 203 | 3.2 | 3.2 | 0.00 | 0.00 | 0.00 | 91 | 1009.0 |
| 20260501224528 | 26 | 203 | 3.2 | 3.2 | 0.00 | 0.00 | 0.00 | 90 | 1009.0 |
| 20260501223028 | 26 | 203 | 3.2 | 3.2 | 0.00 | 0.00 | 0.00 | 89 | 1009.0 |
| 20260501221528 | 26 | 201 | 3.2 | 3.2 | 0.00 | 0.00 | 0.00 | 91 | 1008.0 |
| 20260501220028 | 26 | 201 | 3.2 | 3.2 | 0.00 | 0.00 | 0.00 | 89 | 1008.0 |
| 20260501214528 | 26 | 201 | 3.2 | 3.2 | 0.00 | 0.00 | 0.00 | 90 | 1008.0 |
| 20260501213028 | 26 | 201 | 3.2 | 3.2 | 0.00 | 0.00 | 0.00 | 89 | 1008.0 |
| 20260501211528 | 27 | 199 | 3.2 | 3.2 | 0.00 | 0.00 | 0.00 | 92 | 1008.0 |
| 20260501210028 | 27 | 199 | 3.2 | 3.2 | 0.00 | 0.00 | 0.00 | 90 | 1008.0 |
| 20260501204528 | 27 | 199 | 3.2 | 3.2 | 0.00 | 0.00 | 0.00 | 90 | 1008.0 |
| 20260501203028 | 27 | 199 | 3.2 | 3.2 | 0.00 | 0.00 | 0.00 | 90 | 1008.0 |
| 20260501201528 | 27 | 193 | 4.8 | 4.8 | 0.00 | 0.00 | 0.00 | 90 | 1008.0 |
| 20260501200029 | 27 | 193 | 4.8 | 4.8 | 0.00 | 0.00 | 0.00 | 90 | 1008.0 |